GGA845 KATL-KMCO

Flight info

Callsign GGA845
Flight time 0h 56m
Altitude 35000
Route SMLTZ3 WALET ZJAYX GRNCH5
Aircraft A321/M-SDE3FGHIRWY/LB1

Departure

Time 2026-05-05 14:26
Airport Hartsfield Jackson Atlanta International Airport (KATL)

Arrival

Time 2026-05-05 15:22
Airport Orlando International Airport (KMCO)
Time Latitude Longitude Altitude Speed Heading
2026-05-05 13:11 33.64379 -84.44195 1025 ft 0 kts 270°
2026-05-05 14:14 33.64379 -84.44188 1024 ft 2 kts 275°
2026-05-05 14:14 33.64378 -84.44170 1024 ft 2 kts 268°
2026-05-05 14:14 33.64378 -84.44152 1024 ft 2 kts 270°
2026-05-05 14:14 33.64378 -84.44134 1024 ft 2 kts 269°
2026-05-05 14:15 33.64378 -84.44115 1024 ft 2 kts 270°
2026-05-05 14:15 33.64379 -84.44102 1024 ft 0 kts 269°
2026-05-05 14:15 33.64379 -84.44100 1024 ft 0 kts 269°
2026-05-05 14:17 33.64378 -84.44106 1024 ft 2 kts 265°
2026-05-05 14:18 33.64339 -84.44109 1024 ft 10 kts 180°
2026-05-05 14:18 33.64232 -84.44116 1024 ft 20 kts 179°
2026-05-05 14:18 33.64088 -84.44116 1024 ft 20 kts 181°
2026-05-05 14:18 33.63953 -84.44116 1024 ft 18 kts 180°
2026-05-05 14:19 33.63825 -84.44115 1024 ft 17 kts 180°
2026-05-05 14:19 33.63703 -84.44108 1024 ft 16 kts 159°
2026-05-05 14:19 33.63663 -84.43992 1024 ft 15 kts 91°
2026-05-05 14:19 33.63663 -84.43866 1024 ft 14 kts 90°
2026-05-05 14:20 33.63662 -84.43726 1024 ft 19 kts 90°
2026-05-05 14:20 33.63663 -84.43549 1024 ft 23 kts 90°
2026-05-05 14:20 33.63661 -84.43347 1024 ft 24 kts 90°
2026-05-05 14:20 33.63662 -84.43152 1024 ft 22 kts 89°
2026-05-05 14:21 33.63663 -84.42970 1024 ft 21 kts 90°
2026-05-05 14:21 33.63663 -84.42802 1024 ft 19 kts 90°
2026-05-05 14:21 33.63662 -84.42642 1024 ft 18 kts 92°
2026-05-05 14:21 33.63657 -84.42492 1024 ft 17 kts 92°
2026-05-05 14:22 33.63654 -84.42348 1024 ft 16 kts 89°
2026-05-05 14:22 33.63654 -84.42210 1023 ft 16 kts 99°
2026-05-05 14:22 33.63601 -84.42088 1020 ft 17 kts 120°
2026-05-05 14:22 33.63582 -84.41942 1018 ft 19 kts 89°
2026-05-05 14:23 33.63581 -84.41760 1017 ft 24 kts 90°
2026-05-05 14:23 33.63581 -84.41544 1014 ft 26 kts 90°
2026-05-05 14:23 33.63581 -84.41332 1011 ft 25 kts 90°
2026-05-05 14:23 33.63581 -84.41122 1007 ft 23 kts 90°
2026-05-05 14:24 33.63573 -84.40945 1006 ft 18 kts 105°
2026-05-05 14:24 33.63491 -84.40912 1006 ft 8 kts 197°
2026-05-05 14:24 33.63471 -84.40951 1006 ft 2 kts 262°
2026-05-05 14:24 33.63470 -84.40971 1006 ft 2 kts 269°
2026-05-05 14:25 33.63470 -84.41014 1006 ft 21 kts 271°
2026-05-05 14:25 33.63470 -84.41489 1009 ft 90 kts 270°
2026-05-05 14:25 33.63471 -84.42494 1012 ft 148 kts 270°
2026-05-05 14:25 33.63475 -84.43914 1196 ft 179 kts 270°
2026-05-05 14:26 33.63495 -84.45411 1798 ft 181 kts 271°
2026-05-05 14:26 33.63545 -84.46916 2384 ft 186 kts 269°
2026-05-05 14:26 33.63536 -84.48529 2757 ft 199 kts 267°
2026-05-05 14:26 33.63512 -84.50271 3020 ft 212 kts 267°
2026-05-05 14:27 33.63495 -84.52100 3244 ft 229 kts 267°
2026-05-05 14:27 33.63482 -84.54078 3519 ft 245 kts 267°
2026-05-05 14:27 33.63474 -84.56180 4018 ft 253 kts 268°
2026-05-05 14:27 33.63469 -84.58378 4467 ft 265 kts 268°
2026-05-05 14:28 33.63467 -84.60598 5119 ft 268 kts 268°
2026-05-05 14:28 33.63463 -84.62837 5824 ft 269 kts 267°
2026-05-05 14:28 33.63147 -84.65009 6504 ft 267 kts 243°
2026-05-05 14:28 33.62027 -84.66753 7230 ft 264 kts 217°
2026-05-05 14:29 33.60424 -84.67918 7953 ft 266 kts 209°
2026-05-05 14:29 33.58781 -84.68972 8556 ft 272 kts 204°
2026-05-05 14:29 33.56884 -84.69315 9186 ft 280 kts 176°
2026-05-05 14:29 33.54956 -84.68951 9865 ft 283 kts 172°
2026-05-05 14:30 33.52985 -84.68529 10470 ft 289 kts 172°
2026-05-05 14:30 33.50957 -84.68134 11066 ft 294 kts 173°
2026-05-05 14:30 33.48969 -84.67783 11644 ft 298 kts 174°
2026-05-05 14:30 33.46912 -84.67439 12201 ft 303 kts 174°
2026-05-05 14:31 33.44810 -84.67098 12758 ft 307 kts 175°
2026-05-05 14:31 33.42711 -84.66573 13295 ft 314 kts 162°
2026-05-05 14:31 33.40710 -84.65274 13807 ft 324 kts 143°
2026-05-05 14:31 33.38959 -84.63353 14134 ft 338 kts 137°
2026-05-05 14:32 33.37274 -84.61342 14399 ft 352 kts 136°
2026-05-05 14:32 33.35516 -84.59224 14653 ft 366 kts 136°
2026-05-05 14:32 33.33661 -84.57000 14897 ft 380 kts 136°
2026-05-05 14:32 33.31767 -84.54745 15139 ft 393 kts 136°
2026-05-05 14:33 33.29820 -84.52439 15556 ft 400 kts 136°
2026-05-05 14:33 33.27841 -84.50098 16064 ft 404 kts 136°
2026-05-05 14:33 33.25840 -84.47737 16581 ft 407 kts 136°
2026-05-05 14:33 33.23798 -84.45333 17073 ft 411 kts 136°
2026-05-05 14:34 33.21772 -84.42950 17521 ft 414 kts 136°
2026-05-05 14:34 33.19695 -84.40507 17998 ft 418 kts 136°
2026-05-05 14:34 33.17626 -84.38076 18446 ft 422 kts 136°
2026-05-05 14:34 33.15525 -84.35610 18891 ft 426 kts 136°
2026-05-05 14:35 33.13414 -84.33134 19299 ft 431 kts 137°
2026-05-05 14:35 33.11280 -84.30634 19746 ft 434 kts 137°
2026-05-05 14:35 33.09126 -84.28110 20164 ft 438 kts 137°
2026-05-05 14:35 33.06948 -84.25562 20525 ft 443 kts 137°
2026-05-05 14:36 33.04742 -84.22981 20923 ft 447 kts 137°
2026-05-05 14:36 33.02494 -84.20361 21333 ft 450 kts 138°
2026-05-05 14:36 33.00057 -84.18021 21703 ft 450 kts 148°
2026-05-05 14:36 32.97342 -84.16214 22184 ft 447 kts 159°
2026-05-05 14:37 32.94472 -84.14894 22590 ft 446 kts 165°
2026-05-05 14:37 32.91497 -84.13692 22931 ft 449 kts 166°
2026-05-05 14:37 32.88546 -84.12527 23227 ft 453 kts 166°
2026-05-05 14:37 32.85536 -84.11327 23525 ft 458 kts 166°
2026-05-05 14:38 32.82489 -84.10100 23830 ft 462 kts 166°
2026-05-05 14:38 32.79429 -84.08855 24137 ft 466 kts 165°
2026-05-05 14:38 32.76360 -84.07600 24431 ft 470 kts 165°
2026-05-05 14:38 32.73272 -84.06335 24715 ft 473 kts 165°
2026-05-05 14:39 32.70135 -84.05047 24983 ft 477 kts 165°
2026-05-05 14:39 32.67006 -84.03764 25254 ft 481 kts 165°
2026-05-05 14:39 32.63829 -84.02463 25530 ft 485 kts 165°
2026-05-05 14:39 32.60605 -84.01140 25801 ft 488 kts 165°
2026-05-05 14:40 32.57415 -83.99834 26061 ft 491 kts 165°
2026-05-05 14:40 32.54044 -83.98457 26354 ft 494 kts 165°
2026-05-05 14:40 32.50713 -83.97096 26613 ft 497 kts 165°
2026-05-05 14:40 32.47411 -83.95749 26885 ft 501 kts 165°
2026-05-05 14:41 32.44109 -83.94405 27127 ft 504 kts 165°
2026-05-05 14:41 32.40818 -83.93059 27341 ft 508 kts 165°
2026-05-05 14:41 32.37526 -83.91450 27573 ft 515 kts 158°
2026-05-05 14:41 32.34385 -83.89414 27831 ft 520 kts 150°
2026-05-05 14:42 32.31373 -83.86946 28050 ft 525 kts 144°
2026-05-05 14:42 32.28477 -83.84360 28281 ft 528 kts 144°
2026-05-05 14:42 32.25550 -83.81705 28591 ft 528 kts 143°
2026-05-05 14:42 32.22667 -83.79099 29109 ft 523 kts 143°
2026-05-05 14:43 32.19755 -83.76482 29456 ft 524 kts 143°
2026-05-05 14:43 32.16858 -83.73900 29657 ft 527 kts 143°
2026-05-05 14:43 32.13934 -83.71304 29852 ft 531 kts 144°
2026-05-05 14:43 32.10967 -83.68680 30067 ft 533 kts 144°
2026-05-05 14:44 32.07982 -83.66045 30278 ft 536 kts 144°
2026-05-05 14:44 32.05007 -83.63428 30467 ft 539 kts 144°
2026-05-05 14:44 32.01971 -83.60755 30711 ft 541 kts 144°
2026-05-05 14:44 31.98978 -83.58123 31026 ft 541 kts 144°
2026-05-05 14:45 31.95955 -83.55466 31290 ft 542 kts 144°
2026-05-05 14:45 31.92958 -83.52835 31519 ft 544 kts 144°
2026-05-05 14:45 31.89887 -83.50138 31792 ft 545 kts 145°
2026-05-05 14:45 31.86854 -83.47478 32051 ft 545 kts 145°
2026-05-05 14:46 31.83806 -83.44811 32236 ft 548 kts 145°
2026-05-05 14:46 31.80712 -83.42099 32462 ft 549 kts 145°
2026-05-05 14:46 31.77675 -83.39443 32706 ft 549 kts 145°
2026-05-05 14:46 31.74606 -83.36757 32912 ft 551 kts 145°
2026-05-05 14:47 31.71512 -83.34056 33121 ft 552 kts 146°
2026-05-05 14:47 31.68461 -83.31398 33355 ft 552 kts 146°
2026-05-05 14:47 31.65326 -83.28758 33547 ft 553 kts 150°
2026-05-05 14:47 31.62105 -83.26383 33761 ft 551 kts 154°
2026-05-05 14:48 31.58699 -83.24252 33981 ft 548 kts 159°
2026-05-05 14:48 31.55290 -83.22340 34187 ft 549 kts 160°
2026-05-05 14:48 31.51823 -83.20439 34409 ft 549 kts 161°
2026-05-05 14:48 31.48374 -83.18550 34648 ft 549 kts 160°
2026-05-05 14:49 31.44921 -83.16649 34847 ft 551 kts 160°
2026-05-05 14:49 31.41415 -83.14701 35038 ft 552 kts 160°
2026-05-05 14:49 31.34487 -83.10841 35069 ft 552 kts 160°
2026-05-05 14:50 31.27577 -83.06990 35070 ft 553 kts 160°
2026-05-05 14:50 31.20656 -83.03138 35068 ft 552 kts 160°
2026-05-05 14:51 31.13705 -82.99277 35067 ft 552 kts 160°
2026-05-05 14:51 31.06754 -82.95422 35076 ft 553 kts 160°
2026-05-05 14:52 30.99844 -82.91589 35072 ft 551 kts 160°
2026-05-05 14:52 30.92926 -82.87727 35070 ft 552 kts 158°
2026-05-05 14:53 30.86315 -82.83163 35064 ft 557 kts 147°
2026-05-05 14:53 30.80124 -82.77681 35067 ft 560 kts 143°
2026-05-05 14:54 30.74038 -82.72081 35066 ft 560 kts 143°
2026-05-05 14:54 30.67888 -82.66492 35068 ft 560 kts 144°
2026-05-05 14:55 30.61765 -82.60980 35068 ft 558 kts 144°
2026-05-05 14:55 30.55652 -82.55492 35066 ft 560 kts 143°
2026-05-05 14:56 30.49476 -82.49960 35070 ft 559 kts 143°
2026-05-05 14:56 30.43329 -82.44449 35065 ft 558 kts 143°
2026-05-05 14:57 30.37221 -82.38987 35068 ft 559 kts 143°
2026-05-05 14:57 30.31040 -82.33469 35064 ft 559 kts 144°
2026-05-05 14:58 30.24856 -82.28113 35064 ft 557 kts 149°
2026-05-05 14:58 30.18038 -82.23985 35066 ft 548 kts 163°
2026-05-05 14:59 30.10793 -82.21632 34459 ft 532 kts 177°
2026-05-05 14:59 30.07158 -82.20943 33103 ft 536 kts 179°
2026-05-05 14:59 30.03453 -82.20322 31598 ft 546 kts 178°
2026-05-05 15:00 29.99726 -82.19672 30345 ft 548 kts 176°
2026-05-05 15:00 29.97220 -82.19198 29929 ft 539 kts 175°
2026-05-05 15:00 29.92429 -82.18239 29480 ft 516 kts 175°
2026-05-05 15:00 29.88885 -82.17525 29120 ft 511 kts 175°
2026-05-05 15:01 29.85393 -82.16826 28718 ft 507 kts 175°
2026-05-05 15:01 29.81932 -82.16132 28279 ft 503 kts 175°
2026-05-05 15:01 29.78528 -82.15450 27854 ft 499 kts 176°
2026-05-05 15:01 29.75100 -82.14765 27435 ft 493 kts 176°
2026-05-05 15:02 29.71772 -82.14102 26993 ft 487 kts 176°
2026-05-05 15:02 29.68417 -82.13438 26535 ft 482 kts 176°
2026-05-05 15:02 29.65152 -82.12791 26095 ft 476 kts 176°
2026-05-05 15:02 29.61886 -82.12139 25684 ft 470 kts 176°
2026-05-05 15:03 29.58686 -82.11504 25247 ft 465 kts 176°
2026-05-05 15:03 29.55524 -82.10879 24792 ft 461 kts 176°
2026-05-05 15:03 29.52367 -82.10251 24362 ft 456 kts 176°
2026-05-05 15:03 29.49239 -82.09633 23930 ft 451 kts 176°
2026-05-05 15:04 29.46187 -82.09029 23489 ft 447 kts 177°
2026-05-05 15:04 29.43120 -82.08423 23028 ft 443 kts 177°
2026-05-05 15:04 29.40052 -82.07816 22586 ft 439 kts 177°
2026-05-05 15:04 29.37022 -82.07221 22140 ft 436 kts 177°
2026-05-05 15:05 29.31159 -82.05833 21321 ft 435 kts 168°
2026-05-05 15:05 29.28315 -82.04539 20900 ft 437 kts 159°
2026-05-05 15:05 29.25638 -82.02925 20495 ft 435 kts 155°
2026-05-05 15:06 29.23008 -82.01229 20083 ft 432 kts 154°
2026-05-05 15:06 29.20407 -81.99541 19684 ft 428 kts 154°
2026-05-05 15:06 29.17844 -81.97897 19272 ft 425 kts 154°
2026-05-05 15:06 29.15248 -81.96251 18864 ft 421 kts 154°
2026-05-05 15:07 29.12717 -81.94658 18451 ft 418 kts 154°
2026-05-05 15:07 29.10167 -81.93057 18052 ft 415 kts 154°
2026-05-05 15:07 29.07662 -81.91359 17632 ft 413 kts 148°
2026-05-05 15:07 29.05386 -81.89408 17214 ft 412 kts 141°
2026-05-05 15:08 29.03276 -81.87226 16790 ft 409 kts 138°
2026-05-05 15:08 29.01215 -81.84978 16354 ft 407 kts 137°
2026-05-05 15:08 28.99207 -81.82746 15951 ft 403 kts 136°
2026-05-05 15:08 28.97335 -81.80408 15645 ft 397 kts 131°
2026-05-05 15:09 28.95632 -81.77966 15313 ft 392 kts 128°
2026-05-05 15:09 28.93971 -81.75478 14817 ft 391 kts 128°
2026-05-05 15:09 28.92339 -81.73023 14364 ft 390 kts 128°
2026-05-05 15:09 28.90698 -81.70570 14033 ft 384 kts 128°
2026-05-05 15:10 28.89081 -81.68166 13660 ft 380 kts 129°
2026-05-05 15:10 28.87492 -81.65812 13195 ft 379 kts 129°
2026-05-05 15:10 28.85894 -81.63445 12860 ft 373 kts 129°
2026-05-05 15:10 28.84314 -81.61111 12502 ft 369 kts 129°
2026-05-05 15:11 28.82771 -81.58833 12222 ft 363 kts 129°
2026-05-05 15:11 28.81246 -81.56579 12002 ft 354 kts 129°
2026-05-05 15:11 28.79630 -81.54495 11855 ft 341 kts 140°
2026-05-05 15:11 28.77712 -81.52979 11607 ft 332 kts 153°
2026-05-05 15:12 28.75696 -81.51764 11344 ft 326 kts 155°
2026-05-05 15:12 28.73693 -81.50607 11066 ft 321 kts 155°
2026-05-05 15:12 28.71717 -81.49461 10790 ft 317 kts 155°
2026-05-05 15:12 28.69774 -81.48317 10520 ft 312 kts 154°
2026-05-05 15:13 28.67863 -81.47181 10259 ft 308 kts 154°
2026-05-05 15:13 28.65977 -81.46053 9901 ft 302 kts 154°
2026-05-05 15:13 28.64140 -81.44955 9488 ft 297 kts 154°
2026-05-05 15:13 28.62330 -81.43870 9050 ft 292 kts 153°
2026-05-05 15:14 28.60491 -81.42946 8768 ft 280 kts 165°
2026-05-05 15:14 28.58635 -81.42544 8653 ft 271 kts 175°
2026-05-05 15:14 28.56785 -81.42381 8485 ft 263 kts 180°
2026-05-05 15:14 28.54953 -81.42376 8280 ft 258 kts 182°
2026-05-05 15:15 28.53156 -81.42390 7955 ft 258 kts 182°
2026-05-05 15:15 28.51362 -81.42403 7639 ft 258 kts 181°
2026-05-05 15:15 28.49583 -81.42413 7416 ft 253 kts 181°
2026-05-05 15:15 28.47828 -81.42417 7250 ft 246 kts 181°
2026-05-05 15:16 28.46137 -81.42421 6997 ft 244 kts 181°
2026-05-05 15:16 28.44438 -81.42424 6711 ft 243 kts 181°
2026-05-05 15:16 28.42748 -81.42426 6431 ft 242 kts 180°
2026-05-05 15:16 28.41045 -81.42425 6148 ft 241 kts 180°
2026-05-05 15:17 28.39376 -81.42426 5875 ft 240 kts 180°
2026-05-05 15:17 28.37707 -81.42426 5714 ft 234 kts 180°
2026-05-05 15:17 28.36115 -81.42426 5545 ft 228 kts 180°
2026-05-05 15:17 28.34534 -81.42288 5255 ft 228 kts 161°
2026-05-05 15:18 28.33256 -81.41327 5190 ft 213 kts 129°
2026-05-05 15:18 28.32546 -81.39906 4957 ft 209 kts 115°
2026-05-05 15:18 28.31961 -81.38374 4539 ft 211 kts 109°
2026-05-05 15:18 28.31807 -81.36776 4336 ft 201 kts 87°
2026-05-05 15:19 28.31937 -81.35240 4153 ft 192 kts 83°
2026-05-05 15:19 28.32096 -81.33750 3909 ft 187 kts 83°
2026-05-05 15:19 28.32251 -81.32304 3602 ft 186 kts 83°
2026-05-05 15:19 28.32462 -81.30868 3291 ft 180 kts 66°
2026-05-05 15:20 28.33379 -81.30012 2823 ft 182 kts 17°
2026-05-05 15:20 28.34657 -81.29902 2304 ft 185 kts
2026-05-05 15:20 28.35952 -81.29824 1734 ft 189 kts
2026-05-05 15:20 28.37255 -81.29734 1182 ft 188 kts 11°
2026-05-05 15:21 28.38520 -81.29674 825 ft 175 kts 13°
2026-05-05 15:21 28.39705 -81.29626 434 ft 167 kts 16°
2026-05-05 15:21 28.40834 -81.29565 131 ft 157 kts
2026-05-05 15:21 28.41858 -81.29565 88 ft 127 kts 358°
2026-05-05 15:22 28.42598 -81.29582 88 ft 90 kts 359°
2026-05-05 15:22 28.43099 -81.29584 91 ft 64 kts
2026-05-05 15:22 28.43435 -81.29630 91 ft 28 kts 288°
2026-05-05 15:22 28.43430 -81.29810 91 ft 21 kts 271°
2026-05-05 15:23 28.43433 -81.29909 91 ft 4 kts 315°
2026-05-05 15:23 28.43476 -81.29926 91 ft 6 kts 342°
2026-05-05 15:23 28.43520 -81.29942 91 ft 6 kts 343°
2026-05-05 15:23 28.43561 -81.29959 91 ft 3 kts 312°
2026-05-05 15:24 28.43562 -81.29998 91 ft 5 kts 262°
2026-05-05 15:24 28.43553 -81.30039 91 ft 5 kts 255°
2026-05-05 15:24 28.43549 -81.30054 91 ft 0 kts 255°